Regional Weather Roundup
Issued by NWS

Home | Current Version | Previous Version | Graphics & Text | Print | Product List | Glossary On
Versions: 1 2 3 4 5 6 7 8 9 10 11 12 13 14 15 16 17 18 19 20 21 22 23 24 25 26
000
ASUS45 KSLC 260910
RWRUT

UTAH REGIONAL WEATHER ROUNDUP
NATIONAL WEATHER SERVICE SALT LAKE CITY UT
300 AM MDT THU MAY 26 2016

UTZ001>011-023>025-261000-

NORTHERN UTAH

CITY           SKY/WX    TMP DP  RH WIND       PRES   REMARKS
BRIGHAM CITY     N/A     46  41  82 CALM      30.02F
HILL AFB       PTCLDY    48  39  73 E9        30.02F
LOGAN          CLEAR     39  38  96 N5        30.05S
OGDEN          PTCLDY    48  42  80 CALM      30.01F
PROVO AIRPORT  PTCLDY    48  37  66 E3        30.00F
SALT LAKE CITY PTCLDY    54  45  71 CALM      30.00F
VERNAL         CLOUDY    47  35  63 N5        30.00F
WENDOVER       CLOUDY    55  36  47 CALM      30.03F
HEBER CITY     PTCLDY    37  34  87 CALM      30.02F
WEST JORDAN    CLEAR     48  43  81 CALM      30.02F

$$

UTZ012>022-026-027-261000-

SOUTHERN/CENTRAL UTAH

CITY           SKY/WX    TMP DP  RH WIND       PRES   REMARKS
BLANDING       PTCLDY    46  20  36 NE8       30.02F
BRYCE CANYON   MOCLDY    41  26  55 W10       30.06F
CEDAR CITY     PTCLDY    45  32  60 NE3       30.01F
DELTA          MOCLDY    48  41  76 CALM      30.01S
MILFORD        CLEAR     46  35  65 NE5       30.01S
MOAB/CYNLANDS  CLOUDY    63  21  20 NW3       29.86F
PRICE          PTCLDY    51  24  34 N7        29.97F
ST GEORGE      MOSUNNY   66  25  20 NW5       29.92F
KANAB          MOCLDY    59  27  29 NW9       29.99F

$$

REGIONAL REPORTS     COLORADO/ARIZONA

CITY           SKY/WX    TMP DP  RH WIND       PRES   REMARKS
CRAIG, CO      CLOUDY    35  30  82 CALM      30.06S
GRAND JUNCTION PTCLDY    51  28  41 CALM      29.90F
RIFLE          CLOUDY    41  29  62 SE6       29.99S
MONTROSE       CLEAR     52  22  30 S8        29.99S
CORTEZ         PTCLDY    44  26  49 E6        29.99F
PAGE, AZ       PTCLDY    64  24  21 SW6       29.90F
GRAND CANYON   MOCLDY    36  21  54 CALM      30.03F
KINGMAN        CLEAR     53 N/A N/A MISG      29.95F
FLAGSTAFF      PTCLDY    35  22  58 SW5       30.04F WCI  31

$$

REGIONAL REPORTS    NEVADA/IDAHO/WYOMING

CITY           SKY/WX    TMP DP  RH WIND       PRES   REMARKS
LAS VEGAS, NV  PTCLDY    64  33  31 S7        29.86F
ELY            MOCLDY    38  36  92 NE3       30.10S
ELKO           CLEAR     41  39  93 NE3       30.09S
POCATELLO, ID  CLEAR     43  39  86 E5        30.05S
BURLEY         CLEAR     46  39  76 SW9       30.02F
EVANSTON, WY   CLOUDY    38  34  85 CALM      30.09F
ROCK SPRINGS   CLEAR     39  34  82 N3        30.05F
KEMMERER         N/A     34  32  93 NW8       30.10F WCI  27

$$




USA.gov is the U.S. government's official web portal to all federal, state and local government web resources and services.